timestamp,wind_dir_avg,wind_spd_avg,wind_spd_max_dir,wind_spd_gust,battery_voltage,lat,long
2022-11-19 00:04:00+00:00,236.0,12.59,236.0,14.45,12.41,47.59359,-54.27349
2022-11-19 00:14:01+00:00,246.0,14.51,251.0,18.56,12.41,47.59359,-54.27349
2022-11-19 00:24:01+00:00,254.0,11.43,254.0,15.79,12.41,47.59359,-54.27349
2022-11-19 00:34:01+00:00,247.0,11.29,243.0,13.23,12.41,47.59359,-54.27349
2022-11-19 00:44:01+00:00,249.0,12.5,253.0,16.56,12.41,47.59359,-54.27349
2022-11-19 00:54:01+00:00,247.0,11.68,238.0,13.96,12.41,47.59359,-54.27349
2022-11-19 01:04:01+00:00,243.0,12.01,247.0,13.59,12.41,47.59359,-54.27349
2022-11-19 01:14:00+00:00,243.0,11.61,241.0,13.19,12.41,47.59359,-54.27349
2022-11-19 01:24:00+00:00,250.0,10.5,247.0,12.32,12.41,47.59359,-54.27349
2022-11-19 01:34:00+00:00,256.0,11.01,262.0,12.77,12.41,47.59359,-54.27349
2022-11-19 01:44:00+00:00,253.0,11.56,251.0,13.52,12.41,47.59359,-54.27349
2022-11-19 01:54:00+00:00,250.0,9.77,250.0,11.65,12.41,47.59359,-54.27349
2022-11-19 02:04:00+00:00,247.0,11.09,254.0,14.22,12.41,47.59359,-54.27349
2022-11-19 02:14:01+00:00,249.0,10.37,248.0,12.95,12.41,47.59359,-54.27349
2022-11-19 02:24:01+00:00,252.0,10.95,255.0,12.08,12.41,47.59359,-54.27349
2022-11-19 02:34:01+00:00,242.0,13.23,237.0,15.85,12.41,47.59359,-54.27349
2022-11-19 02:44:01+00:00,242.0,12.31,249.0,14.45,12.41,47.59359,-54.27349
2022-11-19 02:54:01+00:00,243.0,11.36,241.0,13.83,12.41,47.59359,-54.27349
2022-11-19 03:04:01+00:00,250.0,11.87,253.0,14.08,12.41,47.59359,-54.27349
2022-11-19 03:14:00+00:00,251.0,11.76,247.0,14.9,12.33,47.59359,-54.27349
2022-11-19 03:24:00+00:00,249.0,11.08,244.0,13.43,12.33,47.59359,-54.27349
2022-11-19 03:34:00+00:00,251.0,11.19,254.0,13.68,12.33,47.59359,-54.27349
2022-11-19 03:44:00+00:00,249.0,10.88,251.0,13.26,12.33,47.59359,-54.27349
2022-11-19 03:54:00+00:00,246.0,11.41,239.0,13.84,12.33,47.59359,-54.27349
2022-11-19 04:04:00+00:00,250.0,10.18,258.0,11.51,12.33,47.59359,-54.27349
2022-11-19 04:14:00+00:00,248.0,11.36,255.0,14.12,12.33,47.59359,-54.27349
2022-11-19 04:24:00+00:00,249.0,10.67,248.0,12.1,12.33,47.59359,-54.27349
2022-11-19 04:34:00+00:00,245.0,10.67,248.0,11.89,12.33,47.59359,-54.27349
2022-11-19 04:44:00+00:00,245.0,10.48,248.0,12.26,12.33,47.59359,-54.27349
2022-11-19 04:54:00+00:00,243.0,11.03,246.0,12.6,12.33,47.59359,-54.27349
2022-11-19 05:04:00+00:00,248.0,9.42,246.0,11.82,12.33,47.59359,-54.27349
2022-11-19 05:14:00+00:00,250.0,10.79,252.0,12.31,12.33,47.59359,-54.27349
2022-11-19 05:24:00+00:00,248.0,9.89,245.0,12.84,12.33,47.59359,-54.27349
2022-11-19 05:34:00+00:00,250.0,9.8,256.0,12.4,12.33,47.59359,-54.27349
2022-11-19 05:44:00+00:00,247.0,10.86,253.0,12.73,12.33,47.59359,-54.27349
2022-11-19 05:54:00+00:00,250.0,10.53,254.0,12.43,12.33,47.59359,-54.27349
2022-11-19 06:04:00+00:00,250.0,10.46,263.0,12.36,12.33,47.59359,-54.27349
2022-11-19 06:14:00+00:00,251.0,11.76,252.0,13.46,12.33,47.59359,-54.27349
2022-11-19 06:24:00+00:00,253.0,12.08,256.0,15.2,12.33,47.59359,-54.27349
2022-11-19 06:34:00+00:00,247.0,11.21,239.0,13.34,12.33,47.59359,-54.27349
2022-11-19 06:44:00+00:00,253.0,10.11,255.0,12.47,12.33,47.59359,-54.27349
2022-11-19 06:54:00+00:00,248.0,9.84,243.0,11.67,12.33,47.59359,-54.27349
2022-11-19 07:04:00+00:00,254.0,11.65,258.0,13.47,12.33,47.59359,-54.27349
2022-11-19 07:14:00+00:00,255.0,10.07,250.0,12.37,12.33,47.59359,-54.27349
2022-11-19 07:24:00+00:00,253.0,10.51,259.0,12.47,12.33,47.59359,-54.27349
2022-11-19 07:34:00+00:00,247.0,11.6,249.0,12.85,12.33,47.59359,-54.27349
2022-11-19 07:44:00+00:00,249.0,11.54,244.0,13.14,12.33,47.59359,-54.27349
2022-11-19 07:54:00+00:00,249.0,10.54,255.0,13.14,12.33,47.59359,-54.27349
2022-11-19 08:04:00+00:00,255.0,10.51,258.0,12.86,12.33,47.59359,-54.27349
2022-11-19 08:14:00+00:00,246.0,11.16,249.0,12.86,12.33,47.59359,-54.27349
2022-11-19 08:24:00+00:00,249.0,10.36,246.0,12.28,12.33,47.59359,-54.27349
2022-11-19 08:34:00+00:00,253.0,10.93,253.0,12.98,12.33,47.59359,-54.27349
2022-11-19 08:44:00+00:00,250.0,11.06,246.0,12.6,12.33,47.59359,-54.27349
2022-11-19 08:54:00+00:00,252.0,10.4,251.0,13.02,12.33,47.59359,-54.27349
2022-11-19 09:04:00+00:00,250.0,9.62,249.0,12.18,12.33,47.59359,-54.27349
2022-11-19 09:14:01+00:00,250.0,9.02,251.0,10.51,12.25,47.59359,-54.27349
2022-11-19 09:24:01+00:00,253.0,9.01,257.0,10.15,12.25,47.59359,-54.27349
2022-11-19 09:34:01+00:00,259.0,8.7,262.0,9.93,12.25,47.59359,-54.27349
2022-11-19 09:44:01+00:00,250.0,9.06,250.0,9.94,12.25,47.59359,-54.27349
2022-11-19 09:54:01+00:00,248.0,9.51,253.0,10.75,12.25,47.59359,-54.27349
2022-11-19 10:04:01+00:00,260.0,8.83,263.0,9.96,12.25,47.59359,-54.27349
2022-11-19 10:14:01+00:00,246.0,7.28,256.0,8.39,12.25,47.59359,-54.27349
2022-11-19 10:24:01+00:00,248.0,8.6,244.0,9.54,12.25,47.59359,-54.27349
2022-11-19 10:34:01+00:00,245.0,7.64,236.0,8.66,12.25,47.59359,-54.27349
2022-11-19 10:44:01+00:00,244.0,6.37,248.0,7.51,12.25,47.59359,-54.27349
2022-11-19 10:54:01+00:00,246.0,7.49,241.0,8.82,12.25,47.59359,-54.27349
2022-11-19 11:04:01+00:00,241.0,7.81,231.0,9.29,12.25,47.59359,-54.27349
2022-11-19 11:14:00+00:00,240.0,7.99,240.0,9.01,12.25,47.59359,-54.27349
2022-11-19 11:24:00+00:00,235.0,8.9,230.0,10.55,12.25,47.59359,-54.27349
2022-11-19 11:34:00+00:00,246.0,8.2,236.0,9.12,12.25,47.59359,-54.27349
2022-11-19 11:44:00+00:00,251.0,8.1,250.0,9.18,12.25,47.59359,-54.27349
2022-11-19 11:54:00+00:00,241.0,8.38,237.0,9.26,12.25,47.59359,-54.27349
2022-11-19 12:04:00+00:00,247.0,6.88,242.0,8.1,12.25,47.59359,-54.27349
2022-11-19 12:14:00+00:00,254.0,7.14,253.0,8.04,12.57,47.59359,-54.27349
2022-11-19 12:24:00+00:00,242.0,7.53,239.0,8.73,12.57,47.59359,-54.27349
2022-11-19 12:34:00+00:00,242.0,7.73,241.0,8.87,12.57,47.59359,-54.27349
2022-11-19 12:44:00+00:00,241.0,6.9,235.0,8.0,12.57,47.59359,-54.27349
2022-11-19 12:54:00+00:00,243.0,6.68,241.0,8.73,12.57,47.59359,-54.27349
2022-11-19 13:04:00+00:00,244.0,8.37,248.0,8.78,12.57,47.59359,-54.27349
2022-11-19 13:14:01+00:00,240.0,7.87,238.0,8.73,12.89,47.59359,-54.27349
2022-11-19 13:24:01+00:00,240.0,7.93,242.0,9.52,12.89,47.59359,-54.27349
2022-11-19 13:34:01+00:00,246.0,7.2,236.0,7.98,12.89,47.59359,-54.27349
2022-11-19 13:44:01+00:00,245.0,8.04,244.0,9.07,12.89,47.59359,-54.27349
2022-11-19 13:54:01+00:00,242.0,8.96,242.0,9.99,12.89,47.59359,-54.27349
2022-11-19 14:04:01+00:00,251.0,7.55,252.0,8.37,12.89,47.59359,-54.27349
2022-11-19 14:14:00+00:00,248.0,7.3,252.0,7.97,12.97,47.59359,-54.27349
2022-11-19 14:24:00+00:00,250.0,6.99,241.0,8.39,12.97,47.59359,-54.27349
2022-11-19 14:34:00+00:00,258.0,7.53,261.0,8.77,12.97,47.59359,-54.27349
2022-11-19 14:44:00+00:00,248.0,7.95,246.0,9.14,12.97,47.59359,-54.27349
2022-11-19 14:54:00+00:00,241.0,7.57,242.0,8.45,12.97,47.59359,-54.27349
2022-11-19 15:04:00+00:00,244.0,6.9,239.0,7.79,12.97,47.59359,-54.27349
2022-11-19 15:14:01+00:00,252.0,7.57,247.0,8.45,13.44,47.59359,-54.27349
2022-11-19 15:24:01+00:00,245.0,8.27,248.0,9.07,13.44,47.59359,-54.27349
2022-11-19 15:34:01+00:00,237.0,7.24,232.0,9.08,13.44,47.59359,-54.27349
2022-11-19 15:44:01+00:00,233.0,5.77,231.0,7.7,13.44,47.59359,-54.27349
2022-11-19 15:54:01+00:00,243.0,7.22,238.0,8.44,13.44,47.59359,-54.27349
2022-11-19 16:04:01+00:00,242.0,6.97,243.0,8.49,13.44,47.59359,-54.27349
2022-11-19 16:14:00+00:00,241.0,7.68,241.0,9.12,13.6,47.59359,-54.27349
2022-11-19 16:24:00+00:00,248.0,8.27,242.0,9.11,13.6,47.59359,-54.27349
2022-11-19 16:34:00+00:00,254.0,6.44,259.0,7.19,13.6,47.59359,-54.27349
2022-11-19 16:44:00+00:00,251.0,7.55,258.0,9.2,13.6,47.59359,-54.27349
2022-11-19 16:54:00+00:00,268.0,11.3,273.0,17.09,13.6,47.59359,-54.27349
2022-11-19 17:04:00+00:00,262.0,9.7,263.0,11.39,13.6,47.59359,-54.27349
2022-11-19 17:14:01+00:00,259.0,7.51,262.0,8.17,13.76,47.59359,-54.27349
2022-11-19 17:24:01+00:00,261.0,8.01,265.0,8.91,13.76,47.59359,-54.27349
2022-11-19 17:34:01+00:00,256.0,8.24,254.0,9.36,13.76,47.59359,-54.27349
2022-11-19 17:44:01+00:00,253.0,7.21,255.0,7.78,13.76,47.59359,-54.27349
2022-11-19 17:54:01+00:00,258.0,6.92,262.0,7.66,13.76,47.59359,-54.27349
2022-11-19 18:04:01+00:00,264.0,6.48,259.0,7.29,13.76,47.59359,-54.27349
2022-11-19 18:14:00+00:00,267.0,6.32,264.0,7.14,13.44,47.59359,-54.27349
2022-11-19 18:24:00+00:00,303.0,9.31,299.0,11.73,13.44,47.59359,-54.27349
2022-11-19 18:34:00+00:00,287.0,8.21,288.0,10.41,13.44,47.59359,-54.27349
2022-11-19 18:44:00+00:00,273.0,7.48,275.0,8.61,13.44,47.59359,-54.27349
2022-11-19 18:54:00+00:00,279.0,7.0,278.0,8.17,13.44,47.59359,-54.27349
2022-11-19 19:04:00+00:00,266.0,7.67,271.0,8.74,13.44,47.59359,-54.27349
2022-11-19 19:14:00+00:00,272.0,7.69,279.0,8.73,13.37,47.59359,-54.27349
2022-11-19 19:24:00+00:00,255.0,7.38,254.0,8.33,13.37,47.59359,-54.27349
2022-11-19 19:34:00+00:00,260.0,6.51,256.0,7.76,13.37,47.59359,-54.27349
2022-11-19 19:44:00+00:00,254.0,6.72,255.0,7.66,13.37,47.59359,-54.27349
2022-11-19 19:54:00+00:00,244.0,7.18,242.0,8.35,13.37,47.59359,-54.27349
2022-11-19 20:04:00+00:00,255.0,7.0,252.0,7.53,13.37,47.59359,-54.27349
2022-11-19 20:14:00+00:00,249.0,7.46,253.0,8.02,12.89,47.59359,-54.27349
2022-11-19 20:24:00+00:00,256.0,7.85,255.0,8.75,12.89,47.59359,-54.27349
2022-11-19 20:34:00+00:00,251.0,7.95,252.0,8.66,12.89,47.59359,-54.27349
2022-11-19 20:44:00+00:00,241.0,8.15,240.0,9.47,12.89,47.59359,-54.27349
2022-11-19 20:54:00+00:00,266.0,7.7,271.0,8.47,12.89,47.59359,-54.27349
2022-11-19 21:04:00+00:00,277.0,6.9,287.0,8.0,12.89,47.59359,-54.27349
2022-11-19 21:14:01+00:00,275.0,6.33,276.0,7.28,12.57,47.59359,-54.27349
2022-11-19 21:24:01+00:00,267.0,5.59,267.0,6.55,12.57,47.59359,-54.27349
2022-11-19 21:34:01+00:00,260.0,6.81,256.0,7.54,12.57,47.59359,-54.27349
2022-11-19 21:44:01+00:00,257.0,6.94,269.0,8.32,12.57,47.59359,-54.27349
2022-11-19 21:54:01+00:00,258.0,7.27,251.0,8.53,12.57,47.59359,-54.27349
2022-11-19 22:04:01+00:00,263.0,6.41,270.0,7.19,12.57,47.59359,-54.27349
2022-11-19 22:14:00+00:00,266.0,7.72,268.0,8.27,12.41,47.59359,-54.27349
2022-11-19 22:24:00+00:00,260.0,6.69,271.0,8.17,12.41,47.59359,-54.27349
2022-11-19 22:34:00+00:00,253.0,7.22,249.0,7.85,12.41,47.59359,-54.27349
2022-11-19 22:44:00+00:00,259.0,7.56,263.0,8.58,12.41,47.59359,-54.27349
2022-11-19 22:54:00+00:00,247.0,8.82,249.0,9.52,12.41,47.59359,-54.27349
2022-11-19 23:04:00+00:00,251.0,8.66,262.0,9.98,12.41,47.59359,-54.27349
2022-11-19 23:14:00+00:00,257.0,9.32,259.0,11.44,12.41,47.59359,-54.27349
2022-11-19 23:24:00+00:00,253.0,9.24,252.0,11.32,12.41,47.59359,-54.27349
2022-11-19 23:34:00+00:00,251.0,9.59,251.0,11.89,12.41,47.59359,-54.27349
2022-11-19 23:44:00+00:00,255.0,7.73,257.0,8.83,12.41,47.59359,-54.27349
2022-11-19 23:54:00+00:00,254.0,9.71,255.0,12.21,12.41,47.59359,-54.27349
